Overview Statistics Trail Chart Weather Telemetry Raw packets
 

This is the latest recevied weather packets stored in our database for station/object 4S6DRJ-13. If no packets are shown the sender has not sent any weather packets the latest 10 day(s).

<< 354 355 356 357 358 359 360 >>
Time Temp. Humidity Pressure Rain* Wind** Luminosity Snow
1787934782 27.78° C 84% 1011.3 hPa 0 mm 1.34 m/s, 235° 0 W/m² -
1787934722 27.78° C 84% 1011 hPa 0 mm 0.89 m/s, 198° 0 W/m² -
1787934660 27.78° C 84% 1011.3 hPa 0 mm 0 m/s 0 W/m² -
1787934599 28.33° C 84% 1011.4 hPa 0 mm 0.89 m/s, 204° 0 W/m² -
1787934538 28.33° C 84% 1011.2 hPa 0 mm 0 m/s 0 W/m² -
1787934478 28.33° C 84% 1011.3 hPa 0 mm 0 m/s 0 W/m² -
1787934417 28.33° C 84% 1011.2 hPa 0 mm 0.45 m/s, 274° 0 W/m² -
1787934356 27.78° C 84% 1011.3 hPa 0 mm 0 m/s 0 W/m² -
1787934294 27.78° C 84% 1011.1 hPa 0 mm 0 m/s 0 W/m² -
1787934233 27.78° C 84% 1011.2 hPa 0 mm 1.34 m/s, 229° 0 W/m² -
1787934172 27.78° C 84% 1011.2 hPa 0 mm 1.79 m/s, 221° 0 W/m² -
1787934111 27.78° C 84% 1011.2 hPa 0 mm 1.34 m/s, 223° 0 W/m² -
1787934052 28.33° C 84% 1011.1 hPa 0 mm 0.45 m/s, 215° 0 W/m² -
1787933990 28.33° C 84% 1011.3 hPa 0 mm 0.89 m/s, 231° 0 W/m² -
1787933929 28.33° C 84% 1011.2 hPa 0 mm 0.89 m/s, 217° 0 W/m² -
1787933868 28.33° C 84% 1011.2 hPa 0 mm 0.45 m/s, 229° 0 W/m² -
1787933807 28.33° C 84% 1010.9 hPa 0 mm 0.89 m/s, 228° 0 W/m² -
1787933746 28.33° C 84% 1011.1 hPa 0 mm 0.89 m/s, 227° 0 W/m² -
1787933685 28.33° C 84% 1011 hPa 0 mm 0.89 m/s, 181° 0 W/m² -
1787933624 28.33° C 84% 1010.9 hPa 0 mm 0.89 m/s, 223° 0 W/m² -
1787933563 27.78° C 84% 1011 hPa 0 mm 0 m/s 0 W/m² -
1787933502 27.78° C 84% 1011 hPa 0 mm 1.34 m/s, 219° 0 W/m² -
1787933441 27.78° C 84% 1011.1 hPa 0 mm 0.89 m/s, 205° 0 W/m² -
1787933380 27.78° C 84% 1010.9 hPa 0 mm 0.89 m/s, 197° 0 W/m² -
1787933319 27.78° C 84% 1011 hPa 0 mm 1.34 m/s, 231° 0 W/m² -

* Rain latest hour (hover to see other rain measurements)
** Current wind speed in m/s (hover to see current wind gust speed)